Location: Hiedanmaa
(61.2500°N, 22.9500°E)
Time: 07:54:04
(UTC+00:00)

Daily predictions for brighter satellites

Satellite Brightness Start Highest point End
(mag) Time Altitude Azimuth Time Altitude Azimuth Time Altitude Azimuth
SJ 16-02 1.6 14:49:46 10° S 14:54:06 55° ESE 14:58:28 10° NE
Cosmos 2219 Rocket 2.6 14:49:34 10° NW 14:55:15 71° SW 15:00:54 10° SSE
ALOS 3.1 14:53:37 10° S 14:58:13 57° WSW 15:02:52 10° NNW
Cosmos 1953 3.8 14:54:45 10° NNW 14:58:37 42° W 15:02:27 10° SSW
Cosmos 494 Rocket 3.9 14:54:01 10° NNW 14:59:10 69° NE 15:04:17 10° SE
NOSS 2-1 (C) 4.1 14:54:49 10° WNW 14:59:12 82° SSW 15:05:13 10° ESE
SL-16 R/B 3.4 14:54:04 10° NNE 15:00:02 48° NW 15:05:59 10° SW
SAR-Lupe-4 3.8 14:58:00 10° NNE 15:01:38 76° WNW 15:05:12 10° SSW
Meteor 1-28 Rocket 3.2 14:58:45 10° NNE 15:02:35 87° E 15:06:24 10° SSW
CZ-4C R/B 3.5 14:59:29 10° NNE 15:03:02 65° WNW 15:06:38 10° SSW
NOSS 2-1 (D) 4.1 14:58:37 10° WNW 15:03:02 79° SSW 15:09:05 10° ESE
COSMOS 2428 3.3 14:59:55 10° NW 15:05:38 65° WSW 15:11:18 10° SSE
Cosmos 2084 3.6 15:02:43 10° WSW 15:07:14 84° NNW 15:11:41 10° ENE
Meteor 2-1 Rocket 4.4 15:03:21 10° NNW 15:08:42 47° ENE 15:14:01 10° SE
H-2A R/B 2.8 15:06:19 10° SSE 15:10:10 65° ENE 15:14:04 10° NNW
Cosmos 1745 Rocket 4.3 15:05:37 10° SSW 15:11:44 70° WNW 15:17:54 10° NNE
Cosmos 1943 4.0 15:08:24 10° NW 15:13:32 34° NNE 15:18:40 10° E
Meteor 2-10 Rocket 4.3 15:10:28 10° N 15:15:25 32° NE 15:20:09 10° ESE
Ariane Rocket 4.2 15:11:37 10° E 15:15:28 22° NE 15:19:20 10° N
Cosmos 1833 Rocket 3.5 15:11:15 10° W 15:16:39 42° NNW 15:22:02 10° NE
Cosmos 2221 4.3 15:16:05 10° NNE 15:18:08 13° NE 15:20:06 10° ENE
Cosmos 1812 Rocket 3.8 15:13:53 10° N 15:18:16 51° ENE 15:22:38 10° SE
Cosmos 1892 Rocket 3.7 15:14:44 10° S 15:19:08 58° E 15:23:31 10° NNE
COBE Rocket 4.2 15:18:42 10° NNE 15:23:43 53° E 15:28:46 10° S
Cosmos-2242 3.7 15:21:56 10° N 15:25:52 32° ENE 15:29:45 10° SE
Cosmos 1939 Rocket 3.9 15:24:12 10° ESE 15:27:25 24° NE 15:30:42 10° N
Cosmos 2184 Rocket 4.1 15:23:50 10° SSE 15:29:47 53° E 15:35:46 10° NNE
Cosmos 2251 Rocket 3.9 15:25:38 10° NNW 15:30:43 45° NE 15:35:49 10° ESE
Helios 1A Rocket 3.9 15:27:27 10° S 15:31:24 51° WSW 15:35:25 10° NNW
Cosmos 1818 3.7 15:26:44 10° WSW 15:32:13 80° NNW 15:37:12 13° ENE
Cosmos 1898 Rocket 3.6 15:28:24 10° SSW 15:33:44 89° SE 15:39:04 10° NE
H-2A R/B 3.3 15:31:35 10° E 15:35:12 20° NE 15:38:54 10° N
YAOGAN 1 3.1 15:32:13 10° SE 15:36:11 36° ENE 15:40:11 10° N
COSMOS 2406 4.2 15:32:25 10° WNW 15:37:34 34° NNW 15:42:16 12° NE
Cosmos 2154 Rocket 4.4 15:32:27 10° SSE 15:38:17 43° E 15:44:07 10° NNE
Cosmos 1937 Rocket 3.5 15:33:09 10° SSW 15:38:27 79° ESE 15:43:48 10° NE
Cosmos 1726 4.4 15:35:39 10° NNW 15:38:47 27° W 15:41:55 10° SSW
Cosmos 2058 Rocket 4.2 15:36:47 10° NNW 15:40:59 48° W 15:45:12 10° S
CSL-04 Debris 4.4 15:36:58 10° SE 15:42:07 47° ENE 15:47:19 10° NNW
COSMOS 2487 2.5 15:39:42 10° SW 15:43:11 77° WNW 15:46:32 11° NNE
Cosmos 1707 4.1 15:40:11 10° SW 15:43:52 39° WNW 15:47:36 10° N
ATLAS CENTAUR R/B 1.3 15:40:15 10° WNW 15:44:38 78° NNE 15:48:40 10° ESE
Cosmos 2082 Rocket 3.1 15:39:47 10° W 15:45:07 41° NNW 15:50:03 12° NE
Okean 1-7 Rocket 3.6 15:43:00 10° SSW 15:47:25 88° ESE 15:51:55 10° NNE
Cosmos 2237 Rocket 2.5 15:43:11 10° NW 15:48:49 70° SW 15:54:25 10° SSE
Cosmos 2150 Rocket 4.3 15:44:30 10° S 15:49:27 49° ESE 15:54:02 12° NE
Cosmos 1242 Rocket 2.9 15:46:21 10° SSE 15:49:42 41° E 15:52:52 12° NNE
Cosmos 1674 2.6 15:46:06 10° SSW 15:49:49 88° WNW 15:53:35 10° NNE
Iridium 4 Rocket 4.3 15:47:15 10° SSW 15:51:16 43° WNW 15:55:31 10° N
In-Cosmos 22 4.3 15:47:02 10° SSW 15:52:20 72° WNW 15:57:40 10° NNE
ADEOS Rocket 4.4 15:48:49 10° NE 15:53:08 18° E 15:57:42 10° ESE
Cosmos 1602 Rocket 3.9 15:49:28 10° SSE 15:53:36 42° E 15:57:43 10° NNE
Cosmos 2333 Rocket 4.1 15:48:50 10° NW 15:53:59 35° WSW 15:59:05 10° S
SL-27 R/B 4.4 15:51:30 10° W 15:54:34 25° NW 15:57:37 10° NNE
Cosmos 1300 3.0 15:51:35 10° NNW 15:55:25 71° WSW 15:59:12 10° S
SMAP 3.8 15:52:12 10° S 15:56:48 58° WSW 16:01:26 10° NNW
Cosmos 2074 Rocket 4.0 15:51:03 10° S 15:57:19 76° E 16:03:37 10° NNE
COSMO-SKYMED 1 3.5 15:54:04 12° NE 15:57:20 27° E 16:01:02 10° SSE
CZ-4 R/B 1.5 15:54:29 10° SE 15:58:30 58° ENE 16:02:38 10° NNW
NOSS 3-3 (A) 4.3 15:51:58 10° W 15:58:42 76° N 16:05:19 15° E
NOSS 3-3 (C) 4.3 15:52:04 10° W 15:58:47 76° N 16:05:23 15° E
Cosmos 1140 Rocket 4.5 15:54:38 10° NNW 15:59:14 29° NNE 16:02:07 18° ENE
Cosmos 1125 Rocket 4.0 15:55:14 10° S 16:00:01 39° ESE 16:03:50 15° NE
Cosmos 1689 Rocket 2.6 15:59:40 10° N 16:02:37 59° WNW 16:05:32 10° SSW
CZ-2C R/B 4.2 16:01:22 16° E 16:04:30 26° NE 16:09:08 10° N
NOAA 12 4.4 15:59:46 10° S 16:05:00 72° WSW 16:10:18 10° NNW
SL-24 R/B - RUBIN 2 4.3 15:59:22 10° WSW 16:05:05 87° SSE 16:09:54 18° ENE
YAOGAN 6 2.5 16:02:25 10° SSE 16:06:06 87° ENE 16:09:47 10° NNW
CZ-2D R/B 3.5 16:03:57 10° SE 16:07:36 43° ENE 16:11:18 10° N
SeaSat 1 3.9 16:04:52 14° NE 16:08:03 26° N 16:12:06 10° WNW
CSL-04 Rocket 3.7 16:02:35 10° SE 16:08:04 65° ENE 16:13:35 10° NNW
Cosmos 1626 2.1 16:05:12 10° S 16:08:51 57° E 16:12:21 11° NNE
ATLAS 5 CENTAUR R/B 1.9 16:04:33 10° SW 16:09:01 64° SE 16:12:21 21° ENE
CZ-4C R/B 4.5 16:03:45 10° WNW 16:09:58 37° SW 16:17:01 10° S
Cosmos 1356 Rocket 4.0 16:06:18 10° N 16:09:59 33° ENE 16:13:17 12° ESE
Nadezhda 3 Rocket 4.2 16:03:49 10° NNW 16:10:05 77° W 16:16:24 10° S
Cosmos 1455 2.3 16:06:41 10° N 16:10:27 49° ENE 16:14:11 10° SE
Envisat 3.3 16:05:24 10° S 16:10:28 71° WSW 16:15:36 10° NNW
Cosmos 1758 Rocket 4.2 16:07:03 10° SSE 16:10:52 32° E 16:13:37 16° NE
SL-16 R/B 2.2 16:05:22 10° NW 16:11:06 86° NE 16:16:49 10° SE
CZ-4 R/B 4.3 16:08:29 10° SSE 16:12:37 80° ENE 16:16:46 10° NNW
CZ-4B R/B 3.0 16:11:41 10° N 16:14:28 30° WNW 16:17:13 10° SW
Cosmos 1626 Rocket 3.4 16:11:10 10° S 16:15:29 72° E 16:19:49 10° NNE
Cosmos 372 Rocket 3.9 16:10:26 10° SSW 16:15:34 73° ESE 16:19:55 15° NE
Meteor 1-24 Rocket 3.6 16:10:56 10° SSW 16:16:17 85° ESE 16:21:50 10° NNE
KORONAS-FOTON 4.4 16:14:11 10° SSW 16:17:55 56° WNW 16:21:41 10° N
Cosmos 1727 Rocket 4.1 16:14:45 10° N 16:20:49 51° ENE 16:26:50 10° SE
Cosmos 407 Rocket 4.0 16:17:28 10° NNW 16:22:31 39° NE 16:25:12 24° E
Cosmos 1603 3.9 16:17:41 10° NW 16:23:19 54° NE 16:27:12 20° ESE
Cosmos 1340 Rocket 3.9 16:19:49 10° NNW 16:23:38 48° W 16:27:27 10° S
Cosmos 1271 Rocket 2.7 16:19:57 10° SSW 16:23:43 83° WNW 16:27:22 11° NNE
Okean O Rocket 4.4 16:20:24 10° SW 16:23:46 21° W 16:27:10 10° NW
H-2A R/B 4.3 16:20:42 10° N 16:24:02 21° NW 16:27:24 10° W
Okean-O 3.3 16:19:53 10° S 16:24:16 59° WSW 16:28:42 10° NNW
Cosmos 2219 3.9 16:19:51 10° S 16:24:51 34° ESE 16:27:16 24° ENE
IRS-1A Rocket 4.4 16:22:11 10° SE 16:27:41 51° ENE 16:33:07 10° NNW
Cosmos 1833 4.3 16:22:39 10° SW 16:28:24 81° NW 16:32:50 18° NE
USA 267 3.7 16:24:50 21° E 16:29:06 48° SSE 16:35:24 10° SW
Cosmos 1607 4.1 16:23:34 10° SSW 16:29:31 54° SE 16:33:03 25° ENE
Cosmos 839 Rocket 4.2 16:25:58 10° WSW 16:32:07 68° NNW 16:36:24 23° ENE
Resurs 01 Rocket 3.3 16:33:06 18° NNE 16:33:06 18° NNE 16:35:22 10° N
SJ 16-02 2.6 16:28:44 10° WSW 16:32:54 38° NW 16:36:32 13° NNE
SL-14 R/B 3.3 16:29:34 10° SSW 16:33:35 83° WNW 16:37:33 10° NNE
SJ-6B 4.1 16:34:56 23° NNE 16:34:56 23° NNE 16:37:05 10° N
Meteor 2-5 Rocket 4.1 16:29:41 10° SSW 16:35:12 64° WNW 16:40:52 10° NNE
Cosmos 1825 Rocket 3.8 16:31:27 10° SSE 16:35:34 44° E 16:37:52 23° NE
ATLAS 5 CENTAUR R/B 2.6 16:32:47 10° W 16:35:53 73° SSW 16:43:09 15° ESE
Cosmos 2297 Rocket 2.9 16:32:10 10° S 16:37:05 31° ESE 16:38:28 28° E
Timation 2 Rocket 4.0 16:31:03 10° SSW 16:37:12 66° SE 16:41:33 21° NE
MOS 1 4.5 16:33:20 10° SE 16:38:48 50° ENE 16:44:18 10° NNW
Meteor 2-17 Rocket 4.4 16:33:44 10° S 16:39:50 70° E 16:45:57 10° NNE
SL-8 Rocket 4.1 16:33:52 10° SSE 16:39:54 50° E 16:45:56 10° NNE
SL-16 R/B 4.5 16:38:01 10° NNE 16:42:29 21° NNW 16:46:57 10° WNW
Cosmos 2341 Rocket 4.0 16:38:28 10° S 16:44:46 66° E 16:51:04 10° NNE
SKYMED 2 3.6 16:42:38 19° NNE 16:45:43 59° ESE 16:50:01 10° S
Cosmos 2084 3.5 16:42:30 10° WNW 16:47:00 74° N 16:48:30 40° E
HJ-1C 3.5 16:47:56 53° NE 16:47:56 53° NE 16:51:05 10° N
Cosmos 2227 Rocket 2.8 16:44:28 10° S 16:49:31 34° ESE 16:50:27 32° E
NOAA 11 4.3 16:46:00 10° SSE 16:51:31 80° WSW 16:57:03 10° NNW
Ariane Rocket 2.9 16:48:42 10° SSE 16:53:44 68° ENE 16:58:49 10° NNW
Cosmos 2221 2.6 16:52:39 10° N 16:56:49 47° ENE 16:57:00 47° ENE
Meteor 2-10 Rocket 3.8 16:52:33 10° NNW 16:58:01 73° WSW 17:03:13 10° S
Cosmos 1943 3.2 16:52:54 10° NW 16:58:33 64° NE 17:00:58 34° ESE
Cosmos 2298 Rocket 4.3 16:53:55 10° SW 16:59:13 69° NW 17:02:55 20° NNE
ARGOS 3.3 16:58:36 32° ESE 17:00:44 49° ENE 17:05:56 10° NNW
Cosmos 1833 Rocket 3.8 16:56:51 10° WNW 17:01:52 31° N 17:04:00 24° NE
Cosmos 1939 Rocket 3.1 16:58:06 10° S 17:02:03 71° WSW 17:06:05 10° NNW
SJ-11-01 4.2 16:58:42 18° SE 17:02:07 64° ENE 17:06:49 10° NNW
Cosmos-2242 3.8 16:59:26 10° NNW 17:03:41 53° W 17:07:53 10° S
Terra 4.1 17:07:14 11° NNE 17:07:14 11° NNE 17:07:58 10° N
SL-08 RB Rocket 4.4 17:06:46 36° NE 17:06:46 36° NE 17:10:27 10° N
YAOGAN 1 3.5 17:08:02 10° S 17:12:15 49° W 17:16:29 10° NNW
Cosmos 2251 Rocket 4.1 17:08:02 10° NW 17:13:15 59° WSW 17:18:28 10° SSE
H-2A R/B 2.0 17:12:06 39° SE 17:13:48 60° ENE 17:18:55 10° NNW
Cosmos 2218 Rocket 3.9 17:08:35 10° S 17:14:53 68° E 17:21:16 10° NNE
Cosmos 1818 3.8 17:10:52 10° W 17:16:17 58° N 17:17:50 43° NE
Cosmos 864 Rocket 4.3 17:12:16 10° S 17:18:19 65° E 17:24:26 10° NNE
COSMOS 2406 4.1 17:18:09 10° NW 17:23:18 34° NNE 17:24:20 31° NE
ATLAS CENTAUR R/B 2.6 17:19:26 10° WNW 17:23:21 36° SW 17:25:05 24° S
Cosmos 1242 Rocket 4.3 17:21:30 10° SW 17:24:42 30° WNW 17:26:55 17° N
Cosmos 614 Rocket 3.8 17:21:37 10° NNW 17:26:50 78° NE 17:28:04 53° SE
Cosmos 2123 Rocket 4.1 17:21:29 10° N 17:27:43 54° ENE 17:29:05 46° ESE
USA 32 4.4 17:22:57 10° SSW 17:28:09 64° WNW 17:33:23 10° N
Cosmos 2082 Rocket 3.3 17:25:32 10° WNW 17:30:32 31° N 17:31:54 28° NNE
Cosmos 1023 Rocket 4.4 17:27:59 10° NNW 17:33:17 67° NE 17:33:47 63° E
CZ-4 R/B 3.5 17:30:17 10° SSW 17:33:50 28° W 17:37:28 10° NNW
COSMO-SKYMED 1 2.9 17:31:16 23° N 17:33:53 64° WNW 17:38:10 10° SSW
Cosmos 1959 Rocket 4.3 17:30:30 10° S 17:36:39 85° ESE 17:42:49 10° NNE
Cosmos 1000 Rocket 4.3 17:33:01 10° NNW 17:39:14 83° ENE 17:44:02 18° SSE
Cosmos 1842 Rocket 3.8 17:35:12 10° NNW 17:39:40 71° W 17:41:42 32° S
ADEOS Rocket 3.1 17:33:39 10° NNE 17:39:54 60° ESE 17:46:50 10° S
SPOT 3 Rocket 3.4 17:40:52 69° ESE 17:41:16 73° ENE 17:46:27 10° NNW
Cosmos 1140 Rocket 3.3 17:36:36 10° NNW 17:41:54 73° NE 17:42:09 71° ENE
Cosmos 1125 Rocket 3.9 17:36:48 10° SW 17:41:58 61° NW 17:44:08 34° NNE
Cosmos 967 Rocket 4.4 17:36:37 10° WNW 17:43:10 86° NE 17:44:48 54° ESE
Cosmos 1953 Rocket 3.6 17:39:06 10° SSW 17:43:36 78° WNW 17:44:26 58° N
CZ-2C R/B 3.1 17:42:25 55° SE 17:43:40 77° ENE 17:49:24 10° NNW
Cosmos 1626 4.3 17:41:20 10° WSW 17:44:26 24° WNW 17:46:56 13° N
SeaSat 1 3.7 17:44:38 28° NNE 17:44:38 28° NNE 17:48:50 10° NW
Cosmos 1455 4.3 17:42:38 10° NNW 17:45:55 27° W 17:49:09 10° SSW
Meteor 1-27 4.4 17:40:26 10° NNW 17:46:00 68° WSW 17:51:31 10° S
Cosmos 1356 Rocket 4.4 17:43:18 10° NNW 17:47:10 45° W 17:49:34 20° SSW
Meteor 2-2 Rocket 4.3 17:41:05 10° NNW 17:47:10 86° WSW 17:50:58 24° SSE
Cosmos 1758 Rocket 4.3 17:44:25 10° SW 17:48:37 50° WNW 17:50:50 25° N
Cosmos 2366 rocket 3.9 17:42:45 10° SSW 17:49:01 86° WNW 17:55:24 10° NNE
Cosmos 1954 Rocket 4.0 17:43:58 10° NNW 17:49:05 64° NE 17:49:05 64° NE
NOSS 3-3 (A) 4.4 17:42:55 10° WNW 17:49:55 76° SSW 17:52:46 42° SE
NOSS 3-3 (C) 4.4 17:43:01 10° WNW 17:50:01 76° SSW 17:52:51 43° SE
ATLAS 5 CENTAUR R/B 1.9 17:48:59 10° W 17:53:43 73° N 17:53:53 72° N
SL-16 R/B 4.0 17:49:52 10° NW 17:54:46 30° WSW 17:59:37 10° SSW
MetOp-A 4.1 17:56:25 67° NNE 17:56:25 67° NNE 18:01:21 10° NNW
Meteor 1-11 4.1 17:51:22 10° S 17:56:19 67° SSE 17:56:19 67° SSE
Cosmos 1190 Rocket 3.9 17:55:16 10° NW 18:00:36 82° WSW 18:00:54 78° S
Cosmos 407 Rocket 3.6 17:59:36 10° NW 18:04:56 72° WSW 18:05:27 66° SSW
Cosmos 724 4.2 18:00:34 10° SW 18:06:12 73° SSE 18:06:12 73° SSE
Cosmos 1603 4.2 18:02:00 10° NW 18:07:36 57° WSW 18:09:08 43° S
Resurs 01 Rocket 3.3 18:10:40 25° N 18:10:40 25° N 18:12:33 10° NNW
Cosmos 2219 3.2 18:03:00 10° SW 18:08:39 78° NW 18:09:13 70° N
Meteor 2-12 Rocket 4.2 18:03:33 10° S 18:09:36 82° ESE 18:15:43 10° NNE
Cosmos 2082 4.4 18:05:21 10° SSW 18:08:58 40° S 18:08:58 40° S
Cosmos 676 Rocket 4.1 18:06:33 10° NW 18:11:20 70° NNW 18:11:20 70° NNW
SJ 16-02 3.6 18:09:42 10° WNW 18:12:42 17° NNW 18:13:31 17° N
USA 267 3.2 18:12:11 60° SSE 18:12:49 63° S 18:19:19 10° WSW
Cosmos 1607 3.9 18:10:30 10° WSW 18:16:41 76° NNW 18:17:11 71° NNE
Cosmos 2297 Rocket 2.2 18:15:01 10° SW 18:20:19 77° WSW 18:20:19 77° WSW
Timation 2 Rocket 4.5 18:18:46 10° WSW 18:24:56 56° NNW 18:26:32 45° NNE
Cosmos 839 Rocket 4.3 18:26:37 10° WNW 18:32:51 62° N 18:33:01 61° NNE
Cosmos 2227 Rocket 2.5 18:27:33 10° SW 18:32:19 63° WSW 18:32:19 63° WSW
Cosmos 2221 4.1 18:30:27 10° NNW 18:33:55 32° W 18:33:55 32° W
ARGOS 4.0 18:40:05 42° SW 18:41:06 47° W 18:46:20 10° NNW
Cosmos 1943 4.0 18:37:10 10° NW 18:42:31 45° WSW 18:42:49 45° SW
Terra 4.3 18:46:08 14° N 18:46:08 14° N 18:46:53 10° N
Cosmos 1833 Rocket 3.8 18:41:45 10° NW 18:45:42 35° N 18:45:42 35° N
H-2A R/B 3.4 18:52:43 32° WSW 18:53:35 35° W 18:58:18 10° NNW
COSMOS 2406 4.4 19:02:58 10° NW 19:06:24 36° NNW 19:06:24 36° NNW
Cosmos 2082 Rocket 3.7 19:10:32 10° NW 19:13:45 30° NNW 19:13:45 30° NNW
SeaSat 1 4.5 19:24:24 23° NNW 19:24:24 23° NNW 19:26:19 10° NW
ADEOS Rocket 4.0 19:19:29 10° NNE 19:25:25 48° WNW 19:31:57 10° SW
ATLAS 5 CENTAUR R/B 4.1 19:33:42 10° WNW 19:35:26 23° WNW 19:35:26 23° WNW
Cosmos 2297 Rocket 4.3 20:00:08 10° W 20:02:09 21° W 20:02:09 21° W
